GW2042 Weather Reports


Display with metric or nautical units.
time (UTC)temp
F
wind
direction
speed
MPH
gust
MPH
rain 1hr
in
rain 24hr
in
rain mn
in
humidity
%
barometer
mb
20260902211021 97 0 0.0 5.0 0.00 0.00 0.00 38 1013.0
20260902210520 97 0 0.0 5.0 0.00 0.00 0.00 38 1013.1
20260902210038 97 56 1.0 4.0 0.00 0.00 0.00 38 1013.2
20260902205519 97 352 0.0 5.0 0.00 0.00 0.00 37 1013.3
20260902205018 98 0 1.0 7.0 0.00 0.00 0.00 36 1013.4
20260902204543 99 0 1.0 7.0 0.00 0.00 0.00 35 1013.4
20260902203039 100 122 1.0 8.0 0.00 0.00 0.00 35 1013.5
20260902201544 101 335 1.0 9.0 0.00 0.00 0.00 33 1013.7
20260902200518 101 47 2.0 10.0 0.00 0.00 0.00 34 1014.0
20260902200041 99 246 2.0 10.0 0.00 0.00 0.00 36 1014.0
20260902194539 104 115 2.0 8.0 0.00 0.00 0.00 33 1014.4
20260902194020 103 5 2.0 7.0 0.00 0.00 0.00 34 1014.5
20260902193520 101 0 2.0 8.0 0.00 0.00 0.00 34 1014.5
20260902193043 101 10 1.0 9.0 0.00 0.00 0.00 34 1014.6
20260902192520 99 24 0.0 9.0 0.00 0.00 0.00 36 1014.8
20260902192017 99 94 1.0 5.0 0.00 0.00 0.00 37 1014.9
20260902191543 96 73 0.0 4.0 0.00 0.00 0.00 39 1015.0
20260902190043 96 49 1.0 4.0 0.00 0.00 0.00 40 1015.3
20260902184604 100 42 1.0 6.0 0.00 0.00 0.00 37 1015.5
20260902184023 97 320 3.0 5.0 0.00 0.00 0.00 39 1015.6
20260902183042 96 227 1.0 4.0 0.00 0.00 0.00 40 1015.8
20260902182520 96 323 2.0 4.0 0.00 0.00 0.00 40 1015.9
20260902182019 95 327 0.0 7.0 0.00 0.00 0.00 41 1016.0
20260902181542 97 107 1.0 7.0 0.00 0.00 0.00 40 1016.1
20260902181018 97 308 2.0 7.0 0.00 0.00 0.00 40 1016.2
20260902180520 97 355 2.0 7.0 0.00 0.00 0.00 41 1016.1
20260902180037 98 327 2.0 7.0 0.00 0.00 0.00 39 1016.2
20260902175518 97 75 0.0 5.0 0.00 0.00 0.00 41 1016.3
20260902174550 94 331 2.0 5.0 0.00 0.00 0.00 44 1016.5
20260902173105 95 252 1.0 9.0 0.00 0.00 0.00 43 1016.7
20260902172521 96 169 2.0 9.0 0.00 0.00 0.00 42 1016.7
20260902172021 96 336 1.0 7.0 0.00 0.00 0.00 42 1016.8
20260902171543 96 314 2.0 10.0 0.00 0.00 0.00 42 1017.0
20260902171025 95 205 2.0 10.0 0.00 0.00 0.00 42 1017.0
20260902170517 95 24 2.0 8.0 0.00 0.00 0.00 43 1017.0
20260902170038 95 0 3.0 8.0 0.00 0.00 0.00 42 1017.0
20260902165520 95 0 2.0 7.0 0.00 0.00 0.00 43 1017.0
20260902165022 94 219 3.0 7.0 0.00 0.00 0.00 44 1017.1
20260902164538 94 184 1.0 5.0 0.00 0.00 0.00 44 1017.2
20260902163039 94 151 2.0 5.0 0.00 0.00 0.00 45 1017.5
20260902162020 93 158 1.0 6.0 0.00 0.00 0.00 46 1017.5
20260902161539 93 0 1.0 6.0 0.00 0.00 0.00 46 1017.5
20260902161019 93 121 0.0 4.0 0.00 0.00 0.00 47 1017.5
20260902160523 93 57 1.0 5.0 0.00 0.00 0.00 46 1017.5
20260902160053 92 149 1.0 5.0 0.00 0.00 0.00 49 1017.5
20260902154543 92 209 2.0 5.0 0.00 0.00 0.00 51 1017.5
20260902154024 91 157 0.0 4.0 0.00 0.00 0.00 51 1017.5
20260902153520 90 0 0.0 4.0 0.00 0.00 0.00 53 1017.5
20260902153040 90 150 1.0 4.0 0.00 0.00 0.00 53 1017.5
20260902152519 89 270 1.0 4.0 0.00 0.00 0.00 54 1017.6
20260902151538 88 0 0.0 5.0 0.00 0.00 0.00 56 1017.5
20260902150039 88 227 2.0 6.0 0.00 0.00 0.00 56 1017.5
20260902145024 86 242 1.0 6.0 0.00 0.00 0.00 59 1017.4
20260902144537 86 205 1.0 4.0 0.00 0.00 0.00 59 1017.3
20260902144020 85 118 0.0 3.0 0.00 0.00 0.00 60 1017.4
20260902143518 85 148 0.0 3.0 0.00 0.00 0.00 62 1017.4
20260902143040 85 148 1.0 5.0 0.00 0.00 0.00 62 1017.5
20260902141546 84 231 1.0 5.0 0.00 0.00 0.00 63 1017.5
20260902140036 82 0 0.0 4.0 0.00 0.00 0.00 66 1017.5
20260902135520 81 0 0.0 5.0 0.00 0.00 0.00 67 1017.4
20260902135020 81 153 0.0 5.0 0.00 0.00 0.00 67 1017.4
20260902134537 80 133 1.0 5.0 0.00 0.00 0.00 69 1017.3
20260902134018 80 166 1.0 5.0 0.00 0.00 0.00 69 1017.4
20260902133521 80 155 2.0 5.0 0.00 0.00 0.00 70 1017.5
20260902133051 79 146 1.0 7.0 0.00 0.00 0.00 71 1017.4
20260902132021 78 142 1.0 5.0 0.00 0.00 0.00 73 1017.4
20260902131544 77 0 2.0 5.0 0.00 0.00 0.00 74 1017.4
20260902131020 76 0 0.0 4.0 0.00 0.00 0.00 75 1017.3
20260902130521 76 0 1.0 4.0 0.00 0.00 0.00 76 1017.2
20260902130038 75 164 0.0 2.0 0.00 0.00 0.00 77 1017.2
20260902125521 75 0 0.0 1.0 0.00 0.00 0.00 78 1017.2
20260902124549 74 0 0.0 0.0 0.00 0.00 0.00 80 1017.2
20260902123059 73 0 0.0 1.0 0.00 0.00 0.00 80 1017.0
20260902122520 73 0 0.0 0.0 0.00 0.00 0.00 79 1016.8
20260902122018 73 0 0.0 0.0 0.00 0.00 0.00 79 1016.8
20260902121544 73 0 0.0 0.0 0.00 0.00 0.00 79 1016.7
20260902121020 73 0 0.0 0.0 0.00 0.00 0.00 79 1016.7
20260902120518 73 0 0.0 0.0 0.00 0.00 0.00 79 1016.6
20260902120039 74 0 0.0 0.0 0.00 0.00 0.00 77 1016.7
20260902114543 75 0 0.0 0.0 0.00 0.00 0.00 76 1016.7
20260902113520 75 0 0.0 1.0 0.00 0.00 0.00 75 1016.6
20260902113037 75 0 0.0 1.0 0.00 0.00 0.00 75 1016.5
20260902112522 75 0 0.0 2.0 0.00 0.00 0.00 75 1016.4
20260902112020 76 0 0.0 2.0 0.00 0.00 0.00 74 1016.5
20260902111546 76 0 0.0 2.0 0.00 0.00 0.00 74 1016.3
20260902111018 76 0 0.0 2.0 0.00 0.00 0.00 74 1016.4
20260902110521 76 164 0.0 3.0 0.00 0.00 0.00 73 1016.4
20260902110051 76 0 0.0 3.0 0.00 0.00 0.00 73 1016.5
20260902105524 76 159 0.0 3.0 0.00 0.00 0.00 73 1016.6
20260902104538 77 176 0.0 2.0 0.00 0.00 0.00 73 1016.6
20260902104018 77 0 0.0 2.0 0.00 0.00 0.00 72 1016.7
20260902103521 77 160 0.0 2.0 0.00 0.00 0.00 72 1016.7
20260902103038 77 142 0.0 2.0 0.00 0.00 0.00 73 1016.8
20260902102521 76 150 0.0 2.0 0.00 0.00 0.00 73 1016.8
20260902101551 76 0 0.0 4.0 0.00 0.00 0.00 73 1016.7
20260902100038 76 0 1.0 6.0 0.00 0.00 0.00 73 1016.7
20260902095518 76 149 0.0 3.0 0.00 0.00 0.00 73 1016.9
20260902095020 76 155 0.0 4.0 0.00 0.00 0.00 73 1016.9
20260902094538 76 0 0.0 4.0 0.00 0.00 0.00 73 1016.8
20260902094021 76 0 0.0 6.0 0.00 0.00 0.00 73 1016.8
20260902093520 76 0 0.0 6.0 0.00 0.00 0.00 73 1016.8
20260902093037 76 131 0.0 5.0 0.00 0.00 0.00 73 1016.8
20260902092518 76 165 1.0 5.0 0.00 0.00 0.00 73 1016.7
20260902091558 76 0 0.0 4.0 0.00 0.00 0.00 73 1016.7
20260902090042 76 147 0.0 3.0 0.00 0.00 0.00 73 1016.7
20260902085519 76 0 0.0 3.0 0.00 0.00 0.00 73 1016.6
20260902085019 76 0 0.0 2.0 0.00 0.00 0.00 72 1016.7
20260902084548 76 0 0.0 2.0 0.00 0.00 0.00 72 1016.7
20260902084018 77 153 0.0 4.0 0.00 0.00 0.00 71 1016.7
20260902083520 77 0 0.0 4.0 0.00 0.00 0.00 71 1016.7
20260902083042 77 0 0.0 4.0 0.00 0.00 0.00 71 1016.8
20260902082518 77 131 0.0 3.0 0.00 0.00 0.00 71 1016.8
20260902081544 77 145 0.0 3.0 0.00 0.00 0.00 70 1016.8
20260902080040 78 0 0.0 3.0 0.00 0.00 0.00 69 1016.9
20260902075520 78 156 1.0 5.0 0.00 0.00 0.00 68 1016.9
20260902075021 78 163 1.0 5.0 0.00 0.00 0.00 68 1016.9
20260902074538 79 134 1.0 6.0 0.00 0.00 0.00 67 1017.0
20260902074018 79 140 2.0 6.0 0.00 0.00 0.00 67 1016.9
20260902073525 79 155 2.0 7.0 0.00 0.00 0.00 66 1017.0
20260902073041 79 150 3.0 7.0 0.00 0.00 0.00 66 1017.0
20260902072518 79 144 2.0 8.0 0.00 0.00 0.00 66 1017.0
20260902072018 80 153 3.0 9.0 0.00 0.00 0.00 66 1016.9
20260902071536 80 135 3.0 9.0 0.00 0.00 0.00 66 1017.0
20260902070047 80 154 3.0 8.0 0.00 0.00 0.00 65 1017.1
20260902065021 80 136 3.0 10.0 0.00 0.00 0.00 64 1017.0
20260902064541 80 147 3.0 10.0 0.00 0.00 0.00 64 1017.0
20260902064019 79 155 2.0 9.0 0.00 0.00 0.00 64 1017.0
20260902063516 79 155 2.0 8.0 0.00 0.00 0.00 64 1016.9
20260902063036 79 135 1.0 5.0 0.00 0.00 0.00 64 1016.9
20260902062520 78 105 1.0 4.0 0.00 0.00 0.00 64 1016.8
20260902062018 78 0 0.0 4.0 0.00 0.00 0.00 64 1016.8
20260902061546 79 0 0.0 2.0 0.00 0.00 0.00 63 1016.8
20260902061022 79 0 0.0 2.0 0.00 0.00 0.00 62 1016.9
20260902060524 80 0 0.0 4.0 0.00 0.00 0.00 61 1016.8
20260902060039 80 0 0.0 4.0 0.00 0.00 0.00 62 1016.8
20260902055523 80 144 0.0 3.0 0.00 0.00 0.00 62 1016.8
20260902055020 79 128 0.0 4.0 0.00 0.00 0.00 62 1016.7
20260902054538 79 0 0.0 4.0 0.00 0.00 0.00 62 1016.6
20260902053036 79 0 0.0 1.0 0.00 0.00 0.00 63 1016.4
20260902051538 79 0 0.0 1.0 0.00 0.00 0.00 62 1016.5
20260902051020 79 0 0.0 1.0 0.00 0.00 0.00 61 1016.4
20260902050520 79 0 0.0 1.0 0.00 0.00 0.00 61 1016.4
20260902050040 80 0 0.0 0.0 0.00 0.00 0.00 60 1016.5
20260902045522 80 0 0.0 0.0 0.00 0.00 0.00 60 1016.4
20260902045018 81 0 0.0 1.0 0.00 0.00 0.00 60 1016.5
20260902044537 81 0 0.0 1.0 0.00 0.00 0.00 60 1016.5
20260902043041 81 0 0.0 1.0 0.00 0.00 0.00 59 1016.6
20260902042518 82 0 0.0 3.0 0.00 0.00 0.00 58 1016.5
20260902042018 82 0 0.0 3.0 0.00 0.00 0.00 58 1016.4
20260902041549 82 0 0.0 3.0 0.00 0.00 0.00 58 1016.4
20260902041019 82 136 0.0 3.0 0.00 0.00 0.00 57 1016.4
20260902040519 82 129 1.0 5.0 0.00 0.00 0.00 58 1016.3
20260902040039 82 0 0.0 5.0 0.00 0.00 0.00 57 1016.4
20260902035522 82 132 0.0 4.0 0.00 0.00 0.00 58 1016.5
20260902035017 82 0 0.0 4.0 0.00 0.00 0.00 57 1016.4
20260902034537 82 135 0.0 4.0 0.00 0.00 0.00 58 1016.5
20260902033037 82 115 0.0 4.0 0.00 0.00 0.00 56 1016.4
20260902032519 83 0 0.0 4.0 0.00 0.00 0.00 56 1016.3
20260902031540 83 161 0.0 4.0 0.00 0.00 0.00 56 1016.3
20260902031018 83 121 1.0 4.0 0.00 0.00 0.00 55 1016.2
20260902030519 83 137 0.0 4.0 0.00 0.00 0.00 55 1016.1
20260902030039 83 0 0.0 4.0 0.00 0.00 0.00 55 1016.0
20260902025517 83 113 1.0 4.0 0.00 0.00 0.00 55 1016.0
20260902025017 83 0 0.0 4.0 0.00 0.00 0.00 54 1015.9
20260902024537 83 0 0.0 4.0 0.00 0.00 0.00 55 1015.8
20260902023035 83 0 0.0 3.0 0.00 0.00 0.00 55 1015.5
20260902022524 83 132 0.0 3.0 0.00 0.00 0.00 54 1015.5
20260902022019 83 0 0.0 1.0 0.00 0.00 0.00 54 1015.4
20260902021538 83 0 0.0 1.0 0.00 0.00 0.00 54 1015.4
20260902021019 83 0 0.0 1.0 0.00 0.00 0.00 54 1015.3
20260902020520 83 0 0.0 1.0 0.00 0.00 0.00 54 1015.3
20260902020049 84 0 0.0 1.0 0.00 0.00 0.00 53 1015.3
20260902015518 84 0 0.0 1.0 0.00 0.00 0.00 53 1015.2
20260902015018 84 0 0.0 0.0 0.00 0.00 0.00 52 1015.1
20260902014536 85 0 0.0 0.0 0.00 0.00 0.00 51 1015.2
20260902014020 85 0 0.0 1.0 0.00 0.00 0.00 51 1015.1
20260902013523 86 0 0.0 1.0 0.00 0.00 0.00 50 1015.0
20260902011540 89 0 1.0 4.0 0.00 0.00 0.00 46 1014.9
20260902005523 90 135 2.0 10.0 0.00 0.00 0.00 43 1014.5
20260902005019 91 132 2.0 7.0 0.00 0.00 0.00 42 1014.5
20260902004539 91 119 1.0 8.0 0.00 0.00 0.00 41 1014.6
20260902004029 92 146 3.0 10.0 0.00 0.00 0.00 41 1014.7
20260902003517 92 130 2.0 10.0 0.00 0.00 0.00 40 1014.5
20260902003039 92 147 2.0 9.0 0.00 0.00 0.00 40 1014.5
20260902000036 95 143 5.0 10.0 0.00 0.00 0.00 38 1014.6
20260901235520 95 146 4.0 9.0 0.00 0.00 0.00 38 1014.6
20260901235017 95 143 3.0 8.0 0.00 0.00 0.00 37 1014.6
20260901234540 96 132 2.0 8.0 0.00 0.00 0.00 37 1014.6
20260901234019 96 119 3.0 11.0 0.00 0.00 0.00 36 1014.8
20260901233519 97 110 2.0 12.0 0.00 0.00 0.00 36 1014.8
20260901233038 97 124 3.0 12.0 0.00 0.00 0.00 36 1014.9
20260901231020 97 151 3.0 10.0 0.00 0.00 0.00 36 1014.6
20260901230520 98 114 3.0 13.0 0.00 0.00 0.00 36 1014.7
20260901230050 98 167 5.0 13.0 0.00 0.00 0.00 36 1014.7
20260901225520 98 177 5.0 11.0 0.00 0.00 0.00 36 1014.7
20260901225017 98 159 4.0 11.0 0.00 0.00 0.00 35 1014.6
20260901224541 98 149 5.0 10.0 0.00 0.00 0.00 35 1014.7
20260901224019 99 158 4.0 8.0 0.00 0.00 0.00 34 1014.6
20260901223520 101 110 3.0 10.0 0.00 0.00 0.00 34 1014.7
20260901223100 101 154 2.0 10.0 0.00 0.00 0.00 34 1014.6
20260901222519 100 78 2.0 10.0 0.00 0.00 0.00 34 1014.6
20260901222020 101 123 2.0 10.0 0.00 0.00 0.00 34 1014.7
20260901221540 101 101 2.0 12.0 0.00 0.00 0.00 34 1014.5
20260901221018 100 0 3.0 14.0 0.00 0.00 0.00 35 1014.5
20260901220521 101 117 3.0 14.0 0.00 0.00 0.00 34 1014.5
20260901220048 102 111 3.0 14.0 0.00 0.00 0.00 34 1014.6
20260901215521 101 130 4.0 9.0 0.00 0.00 0.00 34 1014.7
20260901215019 99 182 1.0 14.0 0.00 0.00 0.00 32 1014.9
20260901214539 100 151 3.0 14.0 0.00 0.00 0.00 32 1014.9
20260901214021 98 156 2.0 10.0 0.00 0.00 0.00 33 1014.8
20260901213519 99 157 5.0 10.0 0.00 0.00 0.00 32 1014.9
20260901213036 98 78 0.0 9.0 0.00 0.00 0.00 34 1014.9
20260901212520 98 219 4.0 9.0 0.00 0.00 0.00 32 1014.9
20260901212028 99 161 3.0 9.0 0.00 0.00 0.00 32 1015.1
20260901211540 100 108 3.0 9.0 0.00 0.00 0.00 32 1015.1